SCP
0 0 0 0 0 0 0 0 0 0 0 0 0 0 0 -0 -0 -0 0 0 0 0 0 0 0 0 1 1 1 1 1 1 1 0 0 0 0 0 0 0 0 0 0
1 0 0 0 0 0 0 0 0 0 0 0 0 0 0 0 0 0 -0 0 0 0 0 0 0 0 1 1 1 1 1 1 1 0 0 0 0 0 0 0 0 0 0
1 1 1 0 0 0 0 0 0 0 0 0 0 0 0 0 0 0 0 0 0 0 0 0 0 0 0 1 1 2 1 1 1 1 1 0 0 0 0 0 0 0 0
1 1 1 1 1 0 0 0 0 0 0 0 0 1 0 0 0 0 0 0 0 0 0 0 0 0 -0 0 1 2 2 1 1 1 1 1 0 0 0 0 0 0 0
1 2 1 1 1 1 0 0 0 0 0 1 1 1 1 1 1 0 1 1 1 0 1 1 0 -0 -0 -0 0 1 2 2 1 1 1 1 0 0 0 0 0 0 0
1 2 2 2 2 1 1 0 1 0 1 1 1 1 1 1 1 1 1 1 1 1 1 1 -0 0 -0 0 -0 0 2 3 1 1 1 1 0 0 0 0 0 0 0
1 2 3 3 3 2 2 2 1 1 1 1 1 1 1 1 1 1 1 1 2 1 2 1 0 0 0 0 0 -0 1 2 2 1 1 1 0 0 0 0 0 0 0
2 2 4 4 4 3 4 3 2 1 1 1 2 3 1 1 1 2 1 2 3 1 1 1 0 0 0 0 0 0 0 1 2 2 1 1 0 0 0 0 0 0 0
2 2 3 4 6 6 4 5 4 3 1 3 4 5 5 2 2 1 2 2 3 2 2 4 3 2 2 1 0 0 1 0 1 2 1 1 1 1 0 0 0 0 0
2 2 4 3 4 3 3 4 4 4 6 7 7 7 7 5 4 5 1 1 2 2 2 1 1 2 1 1 1 1 0 1 1 1 1 1 1 1 1 0 0 0 0
2 2 2 2 4 4 6 5 3 4 5 4 3 2 2 1 4 5 2 1 0 0 1 1 1 1 1 1 0 1 1 1 1 1 1 1 1 1 1 0 0 0 0
4 3 3 3 5 5 4 5 4 2 1 1 1 1 0 1 0 1 1 1 1 0 0 1 -0 -0 -0 -0 0 1 0 0 0 0 0 0 0 1 1 0 0 0 0
6 6 4 4 4 4 3 3 3 2 1 2 1 0 0 0 0 0 1 0 0 0 0 0 1 0 0 1 1 0 0 0 0 0 0 0 0 0 0 0 0 0 0
4 5 4 4 4 2 2 1 2 1 1 1 1 1 0 0 0 1 1 0 1 0 0 1 0 0 0 1 1 0 0 0 0 0 0 0 0 0 0 0 0 0 0
4 5 3 3 3 3 3 3 3 2 2 1 0 0 0 0 0 1 1 1 2 1 0 0 0 0 0 0 0 1 0 0 0 0 0 0 0 0 0 0 0 0 0
3 2 3 5 5 4 3 4 4 2 2 1 1 0 0 1 1 1 1 1 1 1 1 0 0 0 0 0 0 0 0 0 0 0 0 0 0 0 0 0 0 0 0
2 2 2 3 4 4 3 4 3 2 2 1 1 1 1 1 1 1 0 1 0 0 0 0 1 0 0 0 0 0 0 0 0 0 0 0 0 0 0 0 0 0 0
1 1 1 2 2 2 3 3 3 2 1 1 1 1 0 0 1 1 1 1 1 0 1 0 0 0 1 0 0 0 0 0 1 0 0 0 0 0 0 0 0 0 0
1 1 1 1 1 1 1 0 0 0 0 0 0 0 0 0 0 0 0 0 0 0 0 0 -0 0 0 1 0 0 0 0 0 0 0 0 0 0 0 0 0 0 0
1 1 0 0 0 0 0 0 0 0 0 0 0 0 0 0 0 0 0 0 0 0 0 0 0 -0 0 1 0 0 0 0 0 0 0 0 0 0 0 0 0 0 0
0 0 0 0 0 0 0 0 0 0 0 0 0 0 0 0 0 0 0 0 0 0 0 0 1 0 0 0 0 0 0 0 0 1 0 0 0 0 0 0 0 0 0
0 0 0 0 0 0 0 0 0 0 0 0 0 0 0 0 0 0 0 0 0 0 0 0 0 0 1 0 0 0 1 1 1 1 0 1 0 0 0 0 0 0 0
2 1 0 0 0 0 0 0 0 0 0 0 0 0 0 0 0 0 0 0 0 0 0 0 0 0 0 0 1 1 1 0 0 1 0 0 0 0 0 0 0 0 0
3 3 1 1 1 0 0 0 0 0 0 0 0 0 0 0 0 0 0 0 0 0 0 0 0 0 0 1 1 1 0 0 1 0 0 0 0 0 0 0 0 0 0
2 2 2 1 1 1 0 0 0 0 0 0 0 0 0 0 0 0 0 0 0 0 0 0 0 0 0 0 0 0 0 1 0 0 0 0 0 0 0 0 0 0 0
1 1 1 1 1 1 0 0 0 0 0 0 -0 -0 -0 0 0 0 0 0 0 0 0 0 0 0 0 0 0 0 0 0 0 0 0 0 0 0 0 0 0 0 0
Wind_Speed_500mb
55 52 44 37 30 29 29 29 27 26 23 21 19 20 20 18 19 15 14 14 17 17 19 20 21 23 23 22 21 22 25 26 25 25 25 28 27 27 25 25 23 24 27
67 60 61 55 47 36 30 27 25 25 23 19 20 21 22 21 21 20 17 17 15 17 18 21 23 24 23 26 27 24 25 25 25 26 24 28 30 30 29 28 28 28 28
74 70 64 59 51 49 44 38 36 31 29 24 22 23 23 24 23 24 23 18 18 18 17 18 22 24 22 23 27 27 30 29 25 27 27 27 30 32 33 31 30 32 32
76 73 68 67 55 50 44 41 36 25 24 21 21 20 22 25 29 29 27 24 21 16 22 17 16 19 20 19 25 30 33 35 31 28 30 29 26 31 34 33 32 33 34
79 75 68 58 62 58 50 45 39 30 27 23 23 22 23 25 30 29 28 29 25 10 8 8 7 13 22 23 25 30 36 38 36 30 29 28 26 30 33 35 35 34 35
72 75 66 61 68 59 47 51 47 38 29 27 25 27 26 30 30 26 26 22 15 5 7 13 11 16 22 30 33 31 33 35 38 37 32 30 31 30 35 36 36 38 37
67 73 66 67 66 58 55 54 53 50 37 29 23 27 25 28 28 24 22 15 10 6 8 11 21 23 34 38 46 42 40 38 39 42 40 37 34 33 36 36 37 38 40
61 66 74 59 59 56 63 59 59 39 34 29 26 24 19 19 19 22 27 18 13 20 22 22 20 32 47 45 50 53 50 42 41 45 48 41 38 34 38 36 38 39 39
65 63 73 68 54 57 44 57 56 58 38 30 31 22 13 8 15 16 16 23 20 22 24 24 38 40 52 60 60 49 41 37 39 43 48 49 43 37 40 38 38 38 41
72 78 74 77 73 69 57 37 36 41 46 35 32 34 27 18 7 18 35 26 32 38 43 47 46 46 51 57 67 62 53 44 44 41 46 49 45 39 40 40 40 36 36
57 62 70 67 64 59 54 44 35 37 48 49 48 35 26 26 19 21 46 57 43 43 40 39 44 50 64 71 65 65 58 38 52 58 46 47 44 42 39 40 39 37 35
50 60 64 69 69 59 57 59 55 48 49 52 61 41 55 89 88 56 67 82 80 77 66 55 51 70 57 50 51 57 52 49 51 47 44 44 42 45 40 39 39 38 40
44 48 58 60 59 60 59 63 69 62 75 67 62 66 64 103 86 83 90 85 79 70 63 56 51 52 54 62 53 60 53 43 41 38 40 41 40 39 39 39 41 41 44
48 46 49 49 51 52 57 61 61 55 57 70 68 74 74 93 81 78 75 79 58 66 64 55 48 45 51 45 40 48 50 39 34 30 33 35 37 38 39 39 40 44 49
45 44 44 45 47 48 51 56 66 71 66 70 66 68 82 70 59 60 58 61 54 50 54 52 51 53 44 48 38 45 45 34 32 27 27 32 33 34 35 37 39 45 47
47 42 47 46 44 44 46 55 59 50 57 63 62 71 64 64 59 55 48 45 41 40 45 43 53 48 47 39 39 42 39 33 32 24 27 29 28 29 32 37 39 40 38
49 47 38 36 35 36 39 44 51 51 51 50 47 46 46 42 42 34 36 38 39 34 31 41 49 42 46 56 35 41 36 29 25 28 28 26 26 30 33 34 34 33 30
38 34 34 35 35 33 33 31 31 30 27 26 23 22 22 23 26 30 31 33 33 31 31 42 55 34 46 53 39 45 35 24 23 29 28 27 30 32 32 30 30 28 23
37 37 37 38 36 35 33 30 28 28 26 23 21 20 21 22 23 25 29 31 33 32 36 39 54 28 54 47 48 48 33 32 33 35 32 33 34 32 30 29 28 25 23
40 44 43 42 40 38 35 33 31 28 25 21 19 20 23 26 29 29 29 29 31 34 41 41 45 44 53 45 36 42 44 39 37 36 39 31 32 31 29 27 26 25 24
44 46 46 44 41 41 40 37 31 24 17 13 16 21 25 32 38 41 36 35 34 35 40 43 40 42 50 53 48 41 33 27 33 31 23 24 26 20 24 22 23 24 24
51 49 51 49 49 46 45 43 30 21 16 19 21 23 27 33 36 41 41 41 44 46 45 43 44 41 50 46 42 35 32 34 30 29 27 19 17 16 16 13 22 20 18
59 57 57 56 55 50 52 49 41 28 24 25 26 27 25 23 29 25 31 37 35 38 45 47 49 47 45 38 31 34 33 37 28 26 17 17 16 16 18 20 11 11 14
72 74 66 60 60 54 58 53 47 38 30 32 32 31 32 28 28 30 29 30 33 35 39 48 49 47 52 36 39 34 26 26 25 19 16 16 19 20 15 17 12 12 14
69 71 72 67 64 60 67 60 51 32 27 28 29 33 33 32 31 32 31 31 35 38 37 49 49 58 49 41 32 27 30 32 24 17 16 20 18 15 10 6 15 9 12
70 68 70 69 66 64 68 64 57 38 32 28 27 33 37 38 36 36 37 38 39 39 39 46 44 46 44 40 29 33 26 27 20 16 22 23 19 13 7 9 5 2 3
Wind_Direction_500mb
211 213 211 207 213 215 223 221 224 240 251 253 249 243 238 244 248 251 258 280 300 314 313 313 309 304 301 300 301 293 285 274 271 274 267 258 261 261 263 265 269 270 265
218 216 220 221 222 217 220 225 236 245 244 246 253 249 249 247 255 259 271 284 292 305 314 319 320 314 305 303 303 300 297 287 272 271 276 263 259 263 265 264 266 269 267
222 221 221 223 225 230 234 237 237 245 246 245 257 259 258 265 266 265 275 285 291 306 301 322 325 321 321 309 298 298 296 296 284 273 271 273 262 262 264 265 264 266 266
224 223 226 227 220 225 231 236 245 239 248 245 250 255 266 268 270 273 275 281 290 291 311 329 351 353 357 340 316 301 295 291 292 280 273 268 272 266 264 264 263 264 266
226 229 229 231 232 233 234 235 237 238 241 248 257 259 268 270 270 271 273 275 289 286 297 301 335 21 28 11 333 314 301 290 286 283 272 262 271 273 268 265 264 265 266
226 229 226 228 234 232 231 239 239 238 240 248 247 261 261 268 275 269 265 268 258 200 287 247 292 322 1 336 358 335 316 302 285 278 270 266 267 275 271 269 267 265 265
226 227 226 234 241 237 235 240 242 245 239 241 247 256 261 262 261 255 238 220 188 195 155 297 327 295 319 323 324 339 311 293 284 276 272 270 270 272 273 270 270 271 266
229 231 231 217 238 233 236 237 246 236 237 230 226 242 251 263 235 216 217 246 239 235 287 306 306 309 319 321 321 322 317 286 279 276 274 270 273 271 269 268 267 272 269
229 232 234 226 225 231 229 235 236 237 228 221 220 224 204 240 269 249 219 224 232 240 270 281 294 305 308 313 319 310 313 281 273 272 271 268 270 274 265 267 266 273 269
228 231 233 234 233 239 230 229 230 222 208 211 210 224 214 206 176 319 310 269 264 263 272 285 297 295 306 308 312 302 300 295 288 275 268 266 263 269 262 265 263 268 271
234 228 233 236 227 231 239 230 222 227 225 210 208 213 222 250 255 286 284 288 278 284 285 291 285 290 305 303 304 293 288 284 288 278 259 258 259 263 262 263 260 264 268
227 225 226 230 237 239 234 235 237 230 229 227 235 226 278 285 272 275 288 277 276 277 281 286 294 298 309 295 299 284 279 292 286 268 256 252 257 259 263 267 262 267 270
215 226 225 227 232 237 237 241 246 255 255 242 237 249 271 272 257 254 262 267 273 278 275 279 293 296 296 290 288 289 284 289 281 261 259 254 257 257 264 262 266 271 275
221 220 222 220 226 232 240 247 247 250 259 250 254 250 242 261 248 251 254 266 268 277 282 278 291 298 303 292 279 296 280 282 271 260 266 254 257 259 261 261 265 272 276
210 209 220 225 229 232 234 237 239 242 241 240 248 249 239 246 246 255 252 258 261 274 281 287 292 309 300 290 296 299 289 281 267 267 267 256 259 259 259 262 271 279 278
205 213 222 224 225 229 232 235 242 241 241 244 244 232 240 248 255 250 250 256 260 267 278 286 295 304 300 305 318 305 298 281 256 272 269 260 259 261 261 269 277 279 276
219 221 219 215 216 218 221 224 228 228 231 232 234 236 239 239 234 244 252 257 263 265 269 284 301 299 294 307 304 305 299 270 269 277 269 254 262 265 273 276 277 276 274
207 201 202 203 202 203 204 202 198 207 205 206 208 212 223 233 241 245 252 259 262 264 265 279 287 308 293 297 302 308 288 280 260 273 256 251 264 274 281 277 276 272 263
194 196 198 197 191 189 184 184 186 189 192 199 208 221 232 241 249 253 254 262 270 270 265 263 277 297 294 277 308 317 277 279 257 265 252 253 264 279 281 278 271 261 252
198 196 196 198 193 192 192 192 190 189 192 203 220 236 246 249 250 252 257 261 264 267 265 264 267 279 284 290 304 299 272 256 253 254 260 253 265 281 280 277 264 253 250
201 197 196 199 195 196 196 193 191 189 203 240 270 280 274 266 257 246 250 259 262 265 268 267 267 275 279 282 279 272 248 251 246 239 235 253 266 281 280 267 257 250 249
205 201 204 203 195 194 200 202 198 206 227 261 279 292 283 278 268 261 247 261 270 269 261 264 268 264 275 274 277 249 232 227 230 254 234 234 252 250 261 241 252 264 243
209 206 206 200 196 198 208 211 218 223 239 258 282 301 297 281 270 259 271 284 280 276 267 269 263 265 264 263 249 232 231 235 229 223 207 226 240 236 229 262 269 252 242
214 210 206 206 202 205 210 213 225 233 243 261 280 296 302 280 260 258 271 274 271 272 273 276 271 268 259 255 239 238 246 235 221 204 204 226 232 223 237 250 268 253 254
220 217 213 210 207 209 216 221 228 227 240 255 269 286 299 280 264 266 275 282 287 288 288 281 268 272 264 239 238 249 244 217 214 209 223 213 208 209 195 252 276 268 260
226 222 217 213 211 208 217 221 230 226 238 254 271 287 296 299 268 258 269 282 287 295 297 286 277 268 236 222 228 251 232 222 212 221 220 215 186 179 186 186 239 283 228
Wind_Speed_850mb
55 52 44 37 30 29 29 29 27 26 23 21 19 20 20 18 19 15 14 14 17 17 19 20 21 23 23 22 21 22 25 26 25 25 25 28 27 27 25 25 23 24 27
67 60 61 55 47 36 30 27 25 25 23 19 20 21 22 21 21 20 17 17 15 17 18 21 23 24 23 26 27 24 25 25 25 26 24 28 30 30 29 28 28 28 28
74 70 64 59 51 49 44 38 36 31 29 24 22 23 23 24 23 24 23 18 18 18 17 18 22 24 22 23 27 27 30 29 25 27 27 27 30 32 33 31 30 32 32
76 73 68 67 55 50 44 41 36 25 24 21 21 20 22 25 29 29 27 24 21 16 22 17 16 19 20 19 25 30 33 35 31 28 30 29 26 31 34 33 32 33 34
79 75 68 58 62 58 50 45 39 30 27 23 23 22 23 25 30 29 28 29 25 10 8 8 7 13 22 23 25 30 36 38 36 30 29 28 26 30 33 35 35 34 35
72 75 66 61 68 59 47 51 47 38 29 27 25 27 26 30 30 26 26 22 15 5 7 13 11 16 22 30 33 31 33 35 38 37 32 30 31 30 35 36 36 38 37
67 73 66 67 66 58 55 54 53 50 37 29 23 27 25 28 28 24 22 15 10 6 8 11 21 23 34 38 46 42 40 38 39 42 40 37 34 33 36 36 37 38 40
61 66 74 59 59 56 63 59 59 39 34 29 26 24 19 19 19 22 27 18 13 20 22 22 20 32 47 45 50 53 50 42 41 45 48 41 38 34 38 36 38 39 39
65 63 73 68 54 57 44 57 56 58 38 30 31 22 13 8 15 16 16 23 20 22 24 24 38 40 52 60 60 49 41 37 39 43 48 49 43 37 40 38 38 38 41
72 78 74 77 73 69 57 37 36 41 46 35 32 34 27 18 7 18 35 26 32 38 43 47 46 46 51 57 67 62 53 44 44 41 46 49 45 39 40 40 40 36 36
57 62 70 67 64 59 54 44 35 37 48 49 48 35 26 26 19 21 46 57 43 43 40 39 44 50 64 71 65 65 58 38 52 58 46 47 44 42 39 40 39 37 35
50 60 64 69 69 59 57 59 55 48 49 52 61 41 55 89 88 56 67 82 80 77 66 55 51 70 57 50 51 57 52 49 51 47 44 44 42 45 40 39 39 38 40
44 48 58 60 59 60 59 63 69 62 75 67 62 66 64 103 86 83 90 85 79 70 63 56 51 52 54 62 53 60 53 43 41 38 40 41 40 39 39 39 41 41 44
48 46 49 49 51 52 57 61 61 55 57 70 68 74 74 93 81 78 75 79 58 66 64 55 48 45 51 45 40 48 50 39 34 30 33 35 37 38 39 39 40 44 49
45 44 44 45 47 48 51 56 66 71 66 70 66 68 82 70 59 60 58 61 54 50 54 52 51 53 44 48 38 45 45 34 32 27 27 32 33 34 35 37 39 45 47
47 42 47 46 44 44 46 55 59 50 57 63 62 71 64 64 59 55 48 45 41 40 45 43 53 48 47 39 39 42 39 33 32 24 27 29 28 29 32 37 39 40 38
49 47 38 36 35 36 39 44 51 51 51 50 47 46 46 42 42 34 36 38 39 34 31 41 49 42 46 56 35 41 36 29 25 28 28 26 26 30 33 34 34 33 30
38 34 34 35 35 33 33 31 31 30 27 26 23 22 22 23 26 30 31 33 33 31 31 42 55 34 46 53 39 45 35 24 23 29 28 27 30 32 32 30 30 28 23
37 37 37 38 36 35 33 30 28 28 26 23 21 20 21 22 23 25 29 31 33 32 36 39 54 28 54 47 48 48 33 32 33 35 32 33 34 32 30 29 28 25 23
40 44 43 42 40 38 35 33 31 28 25 21 19 20 23 26 29 29 29 29 31 34 41 41 45 44 53 45 36 42 44 39 37 36 39 31 32 31 29 27 26 25 24
44 46 46 44 41 41 40 37 31 24 17 13 16 21 25 32 38 41 36 35 34 35 40 43 40 42 50 53 48 41 33 27 33 31 23 24 26 20 24 22 23 24 24
51 49 51 49 49 46 45 43 30 21 16 19 21 23 27 33 36 41 41 41 44 46 45 43 44 41 50 46 42 35 32 34 30 29 27 19 17 16 16 13 22 20 18
59 57 57 56 55 50 52 49 41 28 24 25 26 27 25 23 29 25 31 37 35 38 45 47 49 47 45 38 31 34 33 37 28 26 17 17 16 16 18 20 11 11 14
72 74 66 60 60 54 58 53 47 38 30 32 32 31 32 28 28 30 29 30 33 35 39 48 49 47 52 36 39 34 26 26 25 19 16 16 19 20 15 17 12 12 14
69 71 72 67 64 60 67 60 51 32 27 28 29 33 33 32 31 32 31 31 35 38 37 49 49 58 49 41 32 27 30 32 24 17 16 20 18 15 10 6 15 9 12
70 68 70 69 66 64 68 64 57 38 32 28 27 33 37 38 36 36 37 38 39 39 39 46 44 46 44 40 29 33 26 27 20 16 22 23 19 13 7 9 5 2 3
Wind_Direction_850mb
211 213 211 207 213 215 223 221 224 240 251 253 249 243 238 244 248 251 258 280 300 314 313 313 309 304 301 300 301 293 285 274 271 274 267 258 261 261 263 265 269 270 265
218 216 220 221 222 217 220 225 236 245 244 246 253 249 249 247 255 259 271 284 292 305 314 319 320 314 305 303 303 300 297 287 272 271 276 263 259 263 265 264 266 269 267
222 221 221 223 225 230 234 237 237 245 246 245 257 259 258 265 266 265 275 285 291 306 301 322 325 321 321 309 298 298 296 296 284 273 271 273 262 262 264 265 264 266 266
224 223 226 227 220 225 231 236 245 239 248 245 250 255 266 268 270 273 275 281 290 291 311 329 351 353 357 340 316 301 295 291 292 280 273 268 272 266 264 264 263 264 266
226 229 229 231 232 233 234 235 237 238 241 248 257 259 268 270 270 271 273 275 289 286 297 301 335 21 28 11 333 314 301 290 286 283 272 262 271 273 268 265 264 265 266
226 229 226 228 234 232 231 239 239 238 240 248 247 261 261 268 275 269 265 268 258 200 287 247 292 322 1 336 358 335 316 302 285 278 270 266 267 275 271 269 267 265 265
226 227 226 234 241 237 235 240 242 245 239 241 247 256 261 262 261 255 238 220 188 195 155 297 327 295 319 323 324 339 311 293 284 276 272 270 270 272 273 270 270 271 266
229 231 231 217 238 233 236 237 246 236 237 230 226 242 251 263 235 216 217 246 239 235 287 306 306 309 319 321 321 322 317 286 279 276 274 270 273 271 269 268 267 272 269
229 232 234 226 225 231 229 235 236 237 228 221 220 224 204 240 269 249 219 224 232 240 270 281 294 305 308 313 319 310 313 281 273 272 271 268 270 274 265 267 266 273 269
228 231 233 234 233 239 230 229 230 222 208 211 210 224 214 206 176 319 310 269 264 263 272 285 297 295 306 308 312 302 300 295 288 275 268 266 263 269 262 265 263 268 271
234 228 233 236 227 231 239 230 222 227 225 210 208 213 222 250 255 286 284 288 278 284 285 291 285 290 305 303 304 293 288 284 288 278 259 258 259 263 262 263 260 264 268
227 225 226 230 237 239 234 235 237 230 229 227 235 226 278 285 272 275 288 277 276 277 281 286 294 298 309 295 299 284 279 292 286 268 256 252 257 259 263 267 262 267 270
215 226 225 227 232 237 237 241 246 255 255 242 237 249 271 272 257 254 262 267 273 278 275 279 293 296 296 290 288 289 284 289 281 261 259 254 257 257 264 262 266 271 275
221 220 222 220 226 232 240 247 247 250 259 250 254 250 242 261 248 251 254 266 268 277 282 278 291 298 303 292 279 296 280 282 271 260 266 254 257 259 261 261 265 272 276
210 209 220 225 229 232 234 237 239 242 241 240 248 249 239 246 246 255 252 258 261 274 281 287 292 309 300 290 296 299 289 281 267 267 267 256 259 259 259 262 271 279 278
205 213 222 224 225 229 232 235 242 241 241 244 244 232 240 248 255 250 250 256 260 267 278 286 295 304 300 305 318 305 298 281 256 272 269 260 259 261 261 269 277 279 276
219 221 219 215 216 218 221 224 228 228 231 232 234 236 239 239 234 244 252 257 263 265 269 284 301 299 294 307 304 305 299 270 269 277 269 254 262 265 273 276 277 276 274
207 201 202 203 202 203 204 202 198 207 205 206 208 212 223 233 241 245 252 259 262 264 265 279 287 308 293 297 302 308 288 280 260 273 256 251 264 274 281 277 276 272 263
194 196 198 197 191 189 184 184 186 189 192 199 208 221 232 241 249 253 254 262 270 270 265 263 277 297 294 277 308 317 277 279 257 265 252 253 264 279 281 278 271 261 252
198 196 196 198 193 192 192 192 190 189 192 203 220 236 246 249 250 252 257 261 264 267 265 264 267 279 284 290 304 299 272 256 253 254 260 253 265 281 280 277 264 253 250
201 197 196 199 195 196 196 193 191 189 203 240 270 280 274 266 257 246 250 259 262 265 268 267 267 275 279 282 279 272 248 251 246 239 235 253 266 281 280 267 257 250 249
205 201 204 203 195 194 200 202 198 206 227 261 279 292 283 278 268 261 247 261 270 269 261 264 268 264 275 274 277 249 232 227 230 254 234 234 252 250 261 241 252 264 243
209 206 206 200 196 198 208 211 218 223 239 258 282 301 297 281 270 259 271 284 280 276 267 269 263 265 264 263 249 232 231 235 229 223 207 226 240 236 229 262 269 252 242
214 210 206 206 202 205 210 213 225 233 243 261 280 296 302 280 260 258 271 274 271 272 273 276 271 268 259 255 239 238 246 235 221 204 204 226 232 223 237 250 268 253 254
220 217 213 210 207 209 216 221 228 227 240 255 269 286 299 280 264 266 275 282 287 288 288 281 268 272 264 239 238 249 244 217 214 209 223 213 208 209 195 252 276 268 260
226 222 217 213 211 208 217 221 230 226 238 254 271 287 296 299 268 258 269 282 287 295 297 286 277 268 236 222 228 251 232 222 212 221 220 215 186 179 186 186 239 283 228